Laayoune/Hassan Isl, Western Sahara

2:41 AM WEST on May 01, 2017 (GMT +0100)
Laayoune/Hassan Isl

Weather History for GMML - March, 2014

Change the Weather History Date:

Thursday, March 13, 2014

  Actual Average Record
Temperature  
Mean Temperature 64 °F -  
Max Temperature 73 °F - - ()
Min Temperature 55 °F - - ()
Degree Days  
Heating Degree Days 1    
Growing Degree Days 14 (Base 50)    
Moisture  
Dew Point 52 °F    
Average Humidity 68    
Maximum Humidity 94    
Minimum Humidity 44    
Precipitation  
Precipitation 0.00 in - - ()
Sea Level Pressure  
Sea Level Pressure 30.13 in    
Wind  
Wind Speed 9 mph ()    
Max Wind Speed 18 mph    
Max Gust Speed -    
Visibility 6.0 miles    
Events      
T = Trace of Precipitation, MM = Missing Value Source: Averaged Metar Reports

Daily Weather History Graph

Daily Weather History Graph

Search for Another Location

Airport or City:

Trip Planner

Search our weather history database for the weather conditions in past years. The results will help you decide how hot, cold, wet, or windy it might be!

Date:

Astronomy

Mar. 13, 2014 Rise Set
Actual Time 7:04 AM WET 7:00 PM WET
Civil Twilight 6:41 AM WET 7:23 PM WET
Nautical Twilight 6:14 AM WET 7:50 PM WET
Astronomical Twilight 5:47 AM WET 8:17 PM WET
Moon 4:26 PM WET (3/13) 4:51 AM WET (3/13)
Length of Visible Light 12h 42m
Length of Day
11h 55m
Waxing Gibbous, 90% of the Moon is Illuminated
Mar 13
Waxing Gibbous
Mar 16
Full
Mar 24
Last Quarter
Mar 30
New
Apr 7
First Quarter

Hourly Weather History & Observations

Time (WET) Temp. Dew Point Humidity Pressure Visibility Wind Dir Wind Speed Gust Speed Precip Events Conditions
12:00 AM 57.2 °F 53.6 °F 88% 30.15 in 6.2 mi North 4.6 mph - N/A   Partly Cloudy
1:00 AM 55.4 °F 53.6 °F 94% 30.12 in 6.2 mi NNE 8.1 mph - N/A   Scattered Clouds
2:00 AM 57.2 °F 53.6 °F 88% 30.12 in 6.2 mi NNE 8.1 mph - N/A   Partly Cloudy
3:00 AM 55.4 °F 53.6 °F 94% 30.09 in 6.2 mi NNE 6.9 mph - N/A   Mostly Cloudy
4:00 AM - - N/A% 0.00 in 6.2 mi North - - N/A   Overcast
5:00 AM 55.4 °F 53.6 °F 94% 30.12 in 6.2 mi North 3.5 mph - N/A   Mostly Cloudy
6:00 AM 55.4 °F 51.8 °F 88% 30.12 in 6.2 mi NNE 6.9 mph - N/A   Mostly Cloudy
7:00 AM 57.2 °F 51.8 °F 82% 30.12 in 6.2 mi NNE 4.6 mph - N/A   Overcast
8:00 AM 59.0 °F 51.8 °F 77% 30.15 in 6.2 mi North 5.8 mph - N/A   Overcast
9:00 AM 62.6 °F 50.0 °F 63% 30.15 in 6.2 mi NNE 8.1 mph - N/A   Scattered Clouds
10:00 AM 66.2 °F 51.8 °F 60% 30.15 in 6.2 mi NNE 15.0 mph - N/A   Partly Cloudy
11:00 AM 68.0 °F 50.0 °F 52% 30.15 in 6.2 mi North 15.0 mph - N/A   Unknown
12:00 PM 69.8 °F 51.8 °F 53% 30.15 in 6.2 mi NNE 12.7 mph - N/A   Scattered Clouds
1:00 PM 71.6 °F 50.0 °F 46% 30.15 in 6.2 mi NNE 12.7 mph - N/A   Scattered Clouds
2:00 PM 73.4 °F 50.0 °F 44% 30.12 in 6.2 mi NE 15.0 mph - N/A   Scattered Clouds
3:00 PM 71.6 °F 50.0 °F 46% 30.09 in - NE 17.3 mph - N/A   Clear
4:00 PM 71.6 °F 50.0 °F 46% 30.09 in - NNE 17.3 mph - N/A   Clear
5:00 PM 71.6 °F 50.0 °F 46% 30.09 in - NNE 17.3 mph - N/A   Clear
6:00 PM 68.0 °F 50.0 °F 52% 30.09 in - NNE 18.4 mph - N/A   Clear
7:00 PM 66.2 °F 51.8 °F 60% 30.12 in - NNE 16.1 mph - N/A   Clear
8:00 PM 62.6 °F 50.0 °F 63% 30.12 in - NE 17.3 mph - N/A   Clear
9:00 PM 60.8 °F 51.8 °F 72% 30.15 in 5.0 mi NNE 11.5 mph - N/A   Unknown
10:00 PM 60.8 °F 53.6 °F 77% 30.15 in 5.0 mi NNE 9.2 mph - N/A   Scattered Clouds
11:00 PM 60.8 °F 53.6 °F 77% 30.15 in 5.0 mi NNE 10.4 mph - N/A   Partly Cloudy